This is the latest recevied weather packets stored in our database for station/object W6JCZ-13. If no packets are shown the sender has not sent any weather packets the latest 10 day(s).
| Time | Temp. | Humidity | Pressure | Rain* | Wind** | Luminosity | Snow |
|---|---|---|---|---|---|---|---|
| 1777650616 | 17.22° C | 75% | 1012.3 hPa | 0 mm | - | - | - |
| 1777650016 | 17.22° C | 74% | 1012.3 hPa | 0 mm | - | - | - |
| 1777649416 | 16.67° C | 76% | 1012.2 hPa | 0 mm | - | - | - |
| 1777648816 | 16.11° C | 77% | 1012.1 hPa | 0 mm | - | - | - |
| 1777648216 | 15.56° C | 79% | 1012.1 hPa | 0 mm | - | - | - |
| 1777647616 | 14.44° C | 81% | 1012 hPa | 0 mm | - | - | - |
| 1777647016 | 13.89° C | 86% | 1011.9 hPa | 0 mm | - | - | - |
| 1777646416 | 12.78° C | 88% | 1011.7 hPa | 0 mm | - | - | - |
| 1777645816 | 12.22° C | 90% | 1011.6 hPa | 0 mm | - | - | - |
| 1777645216 | 11.67° C | 90% | 1011.5 hPa | 0 mm | - | - | - |
| 1777644616 | 11.67° C | 90% | 1011.3 hPa | 0 mm | - | - | - |
| 1777644016 | 11.11° C | 90% | 1011.3 hPa | 0 mm | - | - | - |
| 1777643416 | 10.56° C | 90% | 1011.3 hPa | 0 mm | - | - | - |
| 1777642816 | 10.56° C | 89% | 1011.1 hPa | 0 mm | - | - | - |
| 1777642216 | 10.56° C | 89% | 1011 hPa | 0 mm | - | - | - |
| 1777641616 | 10.56° C | 88% | 1010.9 hPa | 0 mm | - | - | - |
| 1777641016 | 10.56° C | 89% | 1010.7 hPa | 0 mm | - | - | - |
| 1777640416 | 10.56° C | 88% | 1010.7 hPa | 0 mm | - | - | - |
| 1777639816 | 10.56° C | 88% | 1010.7 hPa | 0 mm | - | - | - |
| 1777639216 | 10.56° C | 87% | 1010.6 hPa | 0 mm | - | - | - |
| 1777638616 | 10.56° C | 87% | 1010.6 hPa | 0 mm | - | - | - |
| 1777638016 | 11.11° C | 87% | 1010.5 hPa | 0 mm | - | - | - |
| 1777637416 | 11.11° C | 86% | 1010.4 hPa | 0 mm | - | - | - |
| 1777636816 | 11.11° C | 86% | 1010.5 hPa | 0 mm | - | - | - |
| 1777636216 | 11.67° C | 85% | 1010.5 hPa | 0 mm | - | - | - |
* Rain latest hour (hover to see other rain measurements)
** Current wind speed in m/s (hover to see current wind gust speed)